Home   Weather   Kingston upon Hull   Past weeks

Flag for United Kingdom Past Weather in Kingston upon Hull, England, United Kingdom — Yesterday and Last 2 Weeks

Now
55 °F

Scattered clouds.


Feels Like: 52 °F
Forecast: 58 / 69 °F
Wind: 14 mph from Southwest

Location: Humberside

Current Time: Jul 28, 2017 at 7:46:21 am

Latest Report: Jul 28, 2017 at 6:50 am


Visibility: N/A

Pressure: 29.62 "Hg

Humidity: 88%

Dew Point: 52 °F

Location of Kingston upon HullLocation

Past Weather in Kingston upon Hull — Graph

°F

Kingston upon Hull Temperature Yesterday

Maximum temperature yesterday: 66 °F (at 4:20 pm)
Minimum temperature yesterday: 50 °F (at 5:20 am)
Average temperature yesterday: 58 °F

High & Low Weather Summary for the Past Weeks

 TemperatureHumidityPressure
High81 °F (Jul 17, 4:50 pm)100% (Jul 18, 2:50 am)30.24 "Hg (Jul 18, 2:50 am)
Low50 °F (Jul 17, 4:20 am)32% (Jul 17, 4:50 pm)29.50 "Hg (Jul 26, 5:50 pm)
Average62 °F80%29.90 "Hg
* Reported Jul 13 6:20 am — Jul 28 6:20 am, Kingston upon Hull. Weather by CustomWeather, © 2017

Note: Actual official high and low records may vary slightly from our data, if they occured in-between our weather recording intervals... More about our weather records

Advertising

Kingston upon Hull Weather History for the Previous 24 Hours

Scroll right to see more
 ConditionsComfort  
Time TempWeatherWind HumidityBarometerVisibility
6:20 am
Fri, Jul 28
55 °FScattered clouds.12 mph88%29.62 "HgN/A
5:50 am55 °FScattered clouds.14 mph88%29.62 "HgN/A
5:20 am55 °FCool.15 mph88%29.62 "HgN/A
4:50 am54 °FCool.12 mph94%29.62 "HgN/A
4:20 am54 °FCool.10 mph94%29.62 "HgN/A
3:50 am54 °FCool.14 mph94%29.62 "HgN/A
3:20 am54 °FCool.10 mph94%29.62 "HgN/A
2:50 am55 °FCool.13 mph88%29.62 "HgN/A
2:20 am55 °FCool.10 mph94%29.62 "HgN/A
1:50 am55 °FCool.9 mph94%29.62 "HgN/A
1:20 am55 °FLight rain. Overcast.10 mph94%29.62 "HgN/A
12:50 am55 °FCool.9 mph94%29.62 "HgN/A
12:20 am55 °FCool.10 mph88%29.62 "HgN/A
11:50 pm
Thu, Jul 27
57 °FCool.9 mph88%29.62 "HgN/A
11:20 pm57 °FCool.13 mph94%29.62 "HgN/A
10:50 pm57 °FPassing clouds.9 mph94%29.62 "HgN/A
10:20 pm55 °FPassing clouds.7 mph94%29.62 "HgN/A
9:50 pm55 °FPassing clouds.5 mph94%29.62 "HgN/A
8:50 pm59 °FRain showers. Scattered clouds.5 mph94%29.62 "Hg4 mi
8:20 pm59 °FThundershowers. Scattered clouds.5 mph94%29.62 "Hg4 mi
7:50 pm61 °FRain showers. Broken clouds.5 mph88%29.62 "Hg3 mi
7:20 pm61 °FScattered clouds.2 mph88%29.59 "HgN/A
6:50 pm63 °FScattered clouds.3 mph77%29.59 "HgN/A
6:20 pm63 °FScattered showers. Scattered clouds.6 mph77%29.59 "HgN/A
5:50 pm61 °FLots of rain. Scattered clouds.16 mph77%29.62 "HgN/A
5:20 pm66 °FScattered showers. Scattered clouds.10 mph60%29.59 "HgN/A
4:50 pm66 °FScattered showers. Scattered clouds.12 mph60%29.59 "HgN/A
4:20 pm66 °FScattered showers. Scattered clouds.14 mph60%29.59 "HgN/A
3:50 pm63 °FScattered showers. Scattered clouds.13 mph77%29.59 "HgN/A
3:20 pm63 °FLots of rain. Scattered clouds.13 mph77%29.62 "HgN/A
2:50 pm64 °FScattered clouds.15 mph68%29.62 "HgN/A
2:20 pm64 °FScattered clouds.17 mph68%29.62 "HgN/A
1:50 pm61 °FScattered clouds.17 mph83%29.62 "HgN/A
1:20 pm59 °FSprinkles. Scattered clouds.15 mph88%29.62 "HgN/A
12:50 pm59 °FSprinkles. Scattered clouds.14 mph82%29.65 "HgN/A
12:20 pm63 °FSprinkles. Scattered clouds.21 mph68%29.62 "HgN/A
11:50 am63 °FScattered clouds.18 mph68%29.62 "HgN/A
11:20 am59 °FScattered clouds.17 mph77%29.62 "HgN/A
10:50 am59 °FScattered clouds.14 mph77%29.65 "HgN/A
10:20 am59 °FPassing clouds.14 mph72%29.65 "HgN/A
9:50 am59 °FPassing clouds.15 mph72%29.65 "HgN/A
9:20 am59 °FPassing clouds.15 mph72%29.65 "HgN/A
8:50 am57 °FSunny.15 mph77%29.65 "Hg10 mi
8:20 am57 °FSunny.15 mph77%29.65 "Hg10 mi
7:50 am57 °FSunny.14 mph77%29.65 "Hg10 mi
7:20 am55 °FSunny.14 mph82%29.65 "Hg10 mi
Weather by CustomWeather, © 2017

See weather overviewHow to use our weather pages